Meteo pe oră la Bolshie Kaybicy

Astăzi, 9 Mai, Duminică

Timp Temperatura Precipitaţii Vânt Presiune Umiditate
00:00 +11°C° 0 mm 4 m/s 750 mmHg 80%
01:00 +11°C° 0 mm 3 m/s 750 mmHg 79%
02:00 +10°C° 0 mm 3 m/s 750 mmHg 78%
03:00 +10°C° 0 mm 3 m/s 750 mmHg 76%
04:00 +11°C° 0 mm 3 m/s 750 mmHg 76%
05:00 +11°C° 0 mm 3 m/s 750 mmHg 76%
06:00 +12°C° 0 mm 3 m/s 749 mmHg 77%
07:00 +14°C° 0 mm 4 m/s 749 mmHg 70%
08:00 +16°C° 0 mm 5 m/s 749 mmHg 64%
09:00 +19°C° 0 mm 6 m/s 749 mmHg 59%
10:00 +19°C° 0 mm 6 m/s 749 mmHg 59%
11:00 +19°C° 0 mm 6 m/s 750 mmHg 58%
12:00 +20°C° 0 mm 6 m/s 750 mmHg 58%
13:00 +20°C° 0 mm 6 m/s 750 mmHg 58%
14:00 +21°C° 0 mm 5 m/s 750 mmHg 59%
15:00 +21°C° 0 mm 5 m/s 750 mmHg 59%
16:00 +20°C° 0 mm 5 m/s 750 mmHg 62%
17:00 +20°C° 0 mm 5 m/s 750 mmHg 65%
18:00 +19°C° 0 mm 5 m/s 750 mmHg 68%
19:00 +17°C° 0 mm 5 m/s 750 mmHg 71%
20:00 +17°C° 0 mm 4 m/s 750 mmHg 74%
21:00 +15°C° 0 mm 4 m/s 750 mmHg 76%
22:00 +14°C° 0 mm 3 m/s 750 mmHg 77%
23:00 +14°C° 0 mm 3 m/s 751 mmHg 79%

Mâine, 10 Mai, Luni

Timp Temperatura Precipitaţii Vânt Presiune Umiditate
00:00 +15°C° 0 mm 2 m/s 751 mmHg 80%
01:00 +14°C° 0 mm 2 m/s 751 mmHg 81%
02:00 +14°C° 0 mm 2 m/s 752 mmHg 83%
03:00 +14°C° 0 mm 1 m/s 752 mmHg 84%
04:00 +14°C° 0 mm 2 m/s 753 mmHg 83%
05:00 +13°C° 0 mm 3 m/s 753 mmHg 83%
06:00 +13°C° 0 mm 3 m/s 753 mmHg 83%
07:00 +16°C° 0 mm 3 m/s 754 mmHg 78%
08:00 +17°C° 0 mm 3 m/s 754 mmHg 73%
09:00 +18°C° 0 mm 3 m/s 754 mmHg 68%
10:00 +19°C° 0 mm 3 m/s 755 mmHg 64%
11:00 +20°C° 0 mm 2 m/s 755 mmHg 60%
12:00 +21°C° 0 mm 2 m/s 755 mmHg 55%
13:00 +23°C° 0 mm 2 m/s 756 mmHg 53%
14:00 +23°C° 0 mm 2 m/s 756 mmHg 51%
15:00 +24°C° 0 mm 2 m/s 756 mmHg 49%
16:00 +22°C° 0.1 mm 3 m/s 756 mmHg 56%
17:00 +21°C° 0.1 mm 3 m/s 757 mmHg 63%
18:00 +20°C° 0.1 mm 4 m/s 757 mmHg 71%
19:00 +18°C° 0.2 mm 4 m/s 757 mmHg 77%
20:00 +16°C° 0.2 mm 5 m/s 758 mmHg 84%
21:00 +14°C° 0.2 mm 5 m/s 758 mmHg 91%
22:00 +13°C° 0 mm 5 m/s 758 mmHg 92%
23:00 +13°C° 0 mm 4 m/s 759 mmHg 93%

Poimâine, 11 Mai, Marţi

Timp Temperatura Precipitaţii Vânt Presiune Umiditate
00:00 +12°C° 0 mm 4 m/s 759 mmHg 94%
01:00 +12°C° 0 mm 4 m/s 759 mmHg 95%
02:00 +12°C° 0 mm 4 m/s 759 mmHg 95%
03:00 +11°C° 0 mm 4 m/s 759 mmHg 96%
04:00 +12°C° 0 mm 4 m/s 760 mmHg 93%
05:00 +13°C° 0 mm 3 m/s 760 mmHg 91%
06:00 +13°C° 0 mm 3 m/s 760 mmHg 89%
07:00 +16°C° 0 mm 3 m/s 760 mmHg 82%
08:00 +18°C° 0 mm 4 m/s 761 mmHg 75%
09:00 +19°C° 0 mm 4 m/s 761 mmHg 68%
10:00 +20°C° 0 mm 4 m/s 761 mmHg 62%
11:00 +22°C° 0 mm 3 m/s 761 mmHg 57%
12:00 +24°C° 0 mm 3 m/s 761 mmHg 51%
13:00 +24°C° 0 mm 3 m/s 761 mmHg 49%
14:00 +24°C° 0 mm 3 m/s 761 mmHg 47%
15:00 +25°C° 0 mm 3 m/s 761 mmHg 45%
16:00 +24°C° 0 mm 3 m/s 761 mmHg 51%
17:00 +23°C° 0 mm 2 m/s 761 mmHg 56%
18:00 +21°C° 0 mm 2 m/s 761 mmHg 61%
19:00 +20°C° 0 mm 2 m/s 761 mmHg 61%
20:00 +19°C° 0 mm 2 m/s 762 mmHg 61%
21:00 +18°C° 0 mm 2 m/s 762 mmHg 61%
22:00 +17°C° 0 mm 2 m/s 762 mmHg 62%
23:00 +17°C° 0 mm 2 m/s 762 mmHg 64%

12 Mai, Miercuri

Timp Temperatura Precipitaţii Vânt Presiune Umiditate
00:00 +16°C° 0 mm 2 m/s 762 mmHg 65%
01:00 +16°C° 0 mm 2 m/s 762 mmHg 67%
02:00 +16°C° 0 mm 2 m/s 762 mmHg 69%
03:00 +16°C° 0 mm 2 m/s 762 mmHg 70%
04:00 +16°C° 0 mm 2 m/s 762 mmHg 71%
05:00 +17°C° 0 mm 2 m/s 762 mmHg 71%
06:00 +17°C° 0 mm 2 m/s 762 mmHg 72%
07:00 +18°C° 0 mm 2 m/s 762 mmHg 67%
08:00 +20°C° 0 mm 3 m/s 762 mmHg 61%
09:00 +21°C° 0 mm 3 m/s 763 mmHg 56%
10:00 +22°C° 0 mm 3 m/s 763 mmHg 52%
11:00 +24°C° 0 mm 3 m/s 763 mmHg 49%
12:00 +25°C° 0 mm 3 m/s 763 mmHg 46%
13:00 +25°C° 0 mm 4 m/s 762 mmHg 45%
14:00 +25°C° 0 mm 4 m/s 762 mmHg 44%
15:00 +25°C° 0 mm 4 m/s 762 mmHg 43%
16:00 +25°C° 0 mm 3 m/s 762 mmHg 49%
17:00 +24°C° 0 mm 3 m/s 762 mmHg 55%
18:00 +23°C° 0 mm 2 m/s 762 mmHg 60%
19:00 +20°C° 0 mm 2 m/s 762 mmHg 63%
20:00 +19°C° 0 mm 2 m/s 762 mmHg 65%
21:00 +18°C° 0 mm 2 m/s 762 mmHg 68%
22:00 +17°C° 0 mm 2 m/s 762 mmHg 68%
23:00 +17°C° 0 mm 2 m/s 762 mmHg 68%

13 Mai, Joi

Timp Temperatura Precipitaţii Vânt Presiune Umiditate
00:00 +16°C° 0 mm 2 m/s 762 mmHg 68%
01:00 +16°C° 0 mm 2 m/s 762 mmHg 69%
02:00 +16°C° 0 mm 2 m/s 762 mmHg 69%
03:00 +16°C° 0 mm 2 m/s 762 mmHg 70%
04:00 +16°C° 0 mm 2 m/s 762 mmHg 69%
05:00 +16°C° 0 mm 2 m/s 762 mmHg 69%
06:00 +17°C° 0 mm 2 m/s 762 mmHg 68%
07:00 +18°C° 0 mm 3 m/s 762 mmHg 62%
08:00 +20°C° 0 mm 4 m/s 762 mmHg 55%
09:00 +21°C° 0 mm 5 m/s 762 mmHg 48%
10:00 +22°C° 0 mm 5 m/s 762 mmHg 45%
11:00 +23°C° 0 mm 5 m/s 762 mmHg 42%
12:00 +25°C° 0 mm 5 m/s 762 mmHg 39%
13:00 +25°C° 0 mm 5 m/s 762 mmHg 39%
14:00 +25°C° 0 mm 5 m/s 762 mmHg 38%
15:00 +26°C° 0 mm 5 m/s 761 mmHg 38%
16:00 +25°C° 0 mm 4 m/s 761 mmHg 44%
17:00 +24°C° 0 mm 3 m/s 761 mmHg 51%
18:00 +22°C° 0 mm 3 m/s 761 mmHg 57%
19:00 +21°C° 0 mm 3 m/s 761 mmHg 59%
20:00 +19°C° 0 mm 3 m/s 761 mmHg 61%
21:00 +18°C° 0 mm 3 m/s 761 mmHg 62%
22:00 +17°C° 0 mm 3 m/s 761 mmHg 62%
23:00 +17°C° 0 mm 2 m/s 761 mmHg 62%

14 Mai, Vineri

Timp Temperatura Precipitaţii Vânt Presiune Umiditate
00:00 +17°C° 0 mm 2 m/s 761 mmHg 61%
01:00 +16°C° 0 mm 2 m/s 761 mmHg 61%
02:00 +16°C° 0 mm 2 m/s 761 mmHg 61%
03:00 +16°C° 0 mm 2 m/s 761 mmHg 61%
04:00 +16°C° 0 mm 2 m/s 761 mmHg 63%
05:00 +17°C° 0 mm 2 m/s 761 mmHg 65%
06:00 +17°C° 0 mm 2 m/s 761 mmHg 67%
07:00 +19°C° 0 mm 3 m/s 761 mmHg 62%
08:00 +20°C° 0 mm 4 m/s 761 mmHg 57%
09:00 +22°C° 0 mm 5 m/s 761 mmHg 51%
10:00 +23°C° 0 mm 5 m/s 761 mmHg 48%
11:00 +25°C° 0 mm 5 m/s 760 mmHg 45%
12:00 +26°C° 0 mm 6 m/s 760 mmHg 42%
13:00 +26°C° 0 mm 6 m/s 760 mmHg 42%
14:00 +26°C° 0 mm 6 m/s 760 mmHg 42%
15:00 +27°C° 0 mm 6 m/s 760 mmHg 42%
16:00 +26°C° 0 mm 5 m/s 759 mmHg 47%
17:00 +25°C° 0 mm 5 m/s 759 mmHg 51%
18:00 +23°C° 0 mm 4 m/s 759 mmHg 56%
19:00 +21°C° 0 mm 4 m/s 759 mmHg 57%
20:00 +20°C° 0 mm 3 m/s 759 mmHg 59%
21:00 +19°C° 0 mm 3 m/s 759 mmHg 60%
22:00 +18°C° 0 mm 3 m/s 758 mmHg 60%
23:00 +18°C° 0 mm 3 m/s 758 mmHg 61%
Arată mai mult

Formular de consimțământ

Meteoprog și furnizorii noștri de servicii pot stoca și accesa date personale, precum cookies, identificatori de dispozitiv sau alte tehnologii similare pe dispozitivul dumneavoastră și procesa astfel de date pentru a personaliza conținutul și reclamele, dar și pentru a oferi caracteristici de social media și pentru a analiza traficul.

  • Stocarea și/sau accesarea informațiilor pe dispozitivul dumneavoastră

    Cookies, identificatori de dispozitiv sau alte informații pot fi stocate sau accesate pe dispozitiv în scopurile indicate mai sus.

  • Reclame și conținut personalizat, evaluarea reclamelor și a conținutului, informații despre audiențe și dezvoltarea produselor

    Reclamele și conținutul pot fi personalizate pe baza unui profil. Pot fi adăugate date suplimentare pentru a personaliza mai bine reclamele și conținutul. Performanța reclamelor și conținutului poate fi măsurată. Pot fi obținute informații despre utilizatorii care au văzut reclamele și conținutul. Aceste date pot fi utilizate pentru a dezvolta sau îmbunătăți experiența utilizatorilor, sistemele și software-ul.

Dând clic pe ‘Sunt de acord’, permiteți utilizarea cookie-urilor menționate, a identificatorilor de dispozitiv, balizelor web sau altor tehnologii similare. Setările pot fi modificate din browser-ul dispozitivului dumneavoastră.

În anumite scopuri, interesele legitime pot prima asupra consimțământului. Puteți citi mai multe informații în acest sens în Politica privind Confidențialitatea Datelor și Cookie.